[[{"header":{"parameterUnit":"m.s-1","parameterCategory":1,"la1":30.2991,"la2":30.254,"lo1":-89.0895,"lo2":-89.0444,"dy":0.0017,"dx":0.0017,"nx":28,"ny":28,"refTime":"2024-07-03T03:00:00:Z","depth":0,"parameterNumber":2,"parameterNumberName":"U-component_of_WINDS"},"data":[0,0,0,0,0,0,0,0,0,0,0,0,0,0,0,0,0,0,0,0,0,0,0,0,0,0,0,0,0,0,0,0,0,0,0,0,0,0,0,0,0,0,0,0,0,0,0,0,0,0,0,0,0,0,0,0,0,0,-2.5452,-2.5452,0,-2.5497,-2.5497,-2.5498,-2.5535,-2.5536,-2.5536,-2.5537,-2.5581,-2.5582,-2.5583,0,0,0,0,0,0,0,0,0,0,0,0,0,-2.54,-2.5401,-2.5452,-2.5452,-2.5453,-2.5497,-2.5497,-2.5498,-2.5535,-2.5536,-2.5536,-2.5537,-2.5581,-2.5582,-2.5583,0,0,0,0,0,0,0,0,0,0,0,0,0,-2.5431,-2.5401,-2.5452,-2.5477,-2.548,-2.5496,-2.5497,-2.5498,-2.5535,-2.5536,-2.5536,-2.5537,-2.5581,-2.5582,-2.5583,-2.5578,0,0,-2.5587,-2.5587,0,0,0,0,0,0,0,0,-2.543,-2.5433,-2.5473,-2.5475,-2.5478,-2.5511,-2.5495,-2.5525,-2.5535,-2.5514,-2.5537,-2.5537,-2.5557,-2.5561,-2.5568,-2.558,-2.5582,-2.5587,-2.5588,-2.5588,-2.5588,0,0,0,0,0,0,0,-2.5427,-2.5432,-2.547,-2.5473,-2.5477,-2.5487,-2.5492,-2.5501,-2.5532,-2.5516,-2.5519,-2.5524,-2.5559,-2.5566,-2.5569,-2.5583,-2.5587,-2.5588,-2.5589,-2.5589,-2.5597,-2.5596,0,0,0,0,0,0,-2.5421,-2.543,-2.5468,-2.5471,-2.5455,-2.5487,-2.5493,-2.55,-2.5532,-2.5537,-2.5523,-2.5525,-2.5564,-2.5567,-2.5571,-2.5568,-2.5588,-2.5589,-2.559,-2.5597,-2.5596,-2.5596,0,0,0,0,0,0,-2.542,-2.5424,-2.5466,-2.5451,-2.5457,-2.5487,-2.5495,-2.55,-2.5508,-2.5537,-2.5543,-2.5525,-2.5565,-2.5569,-2.5577,-2.557,-2.559,-2.5591,-2.5598,-2.5597,-2.5596,-2.5562,0,0,0,0,0,0,-2.5418,-2.5424,-2.5422,-2.5451,-2.5458,-2.5471,-2.5495,-2.5501,-2.551,-2.5513,-2.554,-2.5545,-2.5565,-2.5575,-2.5578,-2.5572,-2.5592,-2.5598,-2.5597,-2.5596,-2.5564,-2.556,-2.5557,0,0,0,0,0,-2.5416,-2.5409,-2.5421,-2.5426,-2.5456,-2.5471,-2.5475,-2.5498,-2.5509,-2.5508,-2.5527,-2.5544,-2.5571,-2.5575,-2.5579,-2.5573,-2.5599,-2.5598,-2.5596,-2.5565,-2.5561,-2.5557,0,0,0,0,0,0,-2.5377,-2.5414,-2.5427,-2.5429,-2.5447,-2.5477,-2.5475,-2.5492,-2.5507,-2.5509,-2.5538,-2.5544,-2.5548,-2.5562,-2.5566,-2.5572,-2.5587,-2.5587,-2.5562,-2.5558,-2.5555,-2.5551,-2.5593,0,0,0,0,0,-2.5369,-2.5378,-2.5409,-2.5408,-2.5417,-2.5445,-2.5452,-2.5469,-2.5488,-2.5495,-2.5515,-2.5533,-2.5546,-2.5553,-2.5566,-2.5567,-2.5574,-2.5565,-2.5562,-2.5559,-2.5558,-2.5561,-2.5558,-2.5592,-2.5592,-2.5592,0,0,-2.5352,-2.5373,-2.5377,-2.5401,-2.5417,-2.5426,-2.545,-2.5458,-2.5465,-2.5496,-2.5505,-2.5521,-2.5543,-2.5547,-2.555,-2.5559,-2.555,-2.5557,-2.5555,-2.5555,-2.5559,-2.5556,-2.5553,-2.5591,-2.5591,-2.5591,0,0,-2.5325,-2.5342,-2.5343,-2.5359,-2.5383,-2.5402,-2.5403,-2.5431,-2.5443,-2.5453,-2.5477,-2.5486,-2.5506,-2.5522,-2.5532,-2.5515,-2.5532,-2.5519,-2.55,-2.5503,-2.55,-2.5498,-2.5492,-2.5489,-2.5518,-2.5517,-2.5517,0,-2.53,-2.5315,-2.5342,-2.5349,-2.536,-2.539,-2.5393,-2.5407,-2.5433,-2.544,-2.545,-2.5478,-2.5495,-2.5504,-2.55,-2.5508,-2.551,-2.5514,-2.5498,-2.5496,-2.5494,-2.5489,-2.5487,-2.5516,-2.5516,-2.5516,-2.5516,0,-2.5284,-2.5293,-2.5292,-2.5318,-2.5329,-2.5333,-2.5362,-2.537,-2.5388,-2.5406,-2.5417,-2.5439,-2.5457,-2.5461,-2.5477,-2.5474,-2.5478,-2.5493,-2.5509,-2.5489,-2.5484,-2.5483,-2.5513,-2.5514,-2.5514,-2.5515,0,0,-2.523,-2.5274,-2.5272,-2.5285,-2.5316,-2.5324,-2.5331,-2.5351,-2.5357,-2.5376,-2.5383,-2.5401,-2.5416,-2.5427,-2.5446,-2.5449,-2.5435,-2.5463,-2.5464,-2.5457,-2.5433,-2.5421,-2.5418,-2.5447,-2.5447,-2.5447,-2.5431,0,-2.5207,-2.5221,-2.5248,-2.5254,-2.5264,-2.5295,-2.5301,-2.5321,-2.5339,-2.5351,-2.5372,-2.5385,-2.5402,-2.541,-2.5414,-2.5435,-2.543,-2.5437,-2.5454,-2.5454,-2.5446,-2.5416,-2.5403,-2.5387,-2.543,-2.5429,-2.5429,0,-2.5181,-2.5199,-2.5206,-2.5238,-2.5244,-2.5249,-2.527,-2.5281,-2.5305,-2.5318,-2.5333,-2.5355,-2.5365,-2.5381,-2.5396,-2.5401,-2.541,-2.5422,-2.5422,-2.5423,-2.5439,-2.5416,-2.5382,-2.538,-2.5427,-2.5427,-2.5427,0,-2.5141,-2.5167,-2.5176,-2.5186,-2.5223,-2.5226,-2.5242,-2.5267,-2.5278,-2.5297,-2.5304,-2.5324,-2.5334,-2.535,-2.5376,-2.5385,-2.5389,-2.5407,-2.5401,-2.54,-2.5398,-2.5397,-2.5365,-2.5406,-2.5406,-2.5406,-2.5406,0,-2.5112,-2.5115,-2.5158,-2.5163,-2.5168,-2.52,-2.5204,-2.5223,-2.5245,-2.5255,-2.5283,-2.5292,-2.5327,-2.534,-2.5362,-2.5371,-2.5376,-2.5388,-2.5393,-2.5384,-2.5383,-2.5389,-2.5391,-2.5405,-2.5405,-2.5405,-2.5405,0,-2.5067,-2.5096,-2.5107,-2.5142,-2.5152,-2.5154,-2.5185,-2.5191,-2.5213,-2.5225,-2.523,-2.5263,-2.5281,-2.531,-2.5335,-2.5349,-2.5355,-2.5365,-2.5347,-2.535,-2.5342,-2.5342,-2.5311,-2.5309,-2.5352,-2.5351,-2.5351,0,-2.5046,-2.5049,-2.5086,-2.5095,-2.511,-2.5123,-2.5135,-2.5168,-2.5179,-2.5209,-2.5212,-2.5232,-2.5249,-2.5275,-2.5302,-2.5322,-2.5332,-2.532,-2.5335,-2.5327,-2.5332,-2.5331,-2.5331,-2.5316,-2.5315,-2.5315,-2.5314,0,-2.5005,-2.502,-2.5036,-2.5058,-2.5071,-2.509,-2.511,-2.5116,-2.5153,-2.5164,-2.5183,-2.5197,-2.5224,-2.5243,-2.5268,-2.5285,-2.5306,-2.531,-2.531,-2.53,-2.5289,-2.5295,-2.5336,-2.531,-2.531,-2.5311,-2.5311,-2.5311,-2.4971,-2.4976,-2.5003,-2.5021,-2.504,-2.5059,-2.5067,-2.5091,-2.5107,-2.5132,-2.5151,-2.5168,-2.5195,-2.523,-2.5247,-2.5261,-2.5271,-2.527,-2.527,-2.5269,-2.5265,-2.5288,-2.5266,-2.5266,-2.5266,-2.5267,-2.5267,0,-2.4931,-2.4951,-2.4967,-2.4995,-2.5009,-2.503,-2.5054,-2.5065,-2.508,-2.5103,-2.5121,-2.5143,-2.5163,-2.5193,-2.5216,-2.5222,-2.5232,-2.5227,-2.5226,-2.5229,-2.5256,-2.5254,-2.5218,-2.5218,-2.5218,-2.5218,-2.5218,-2.5218,-2.4912,-2.4922,-2.4941,-2.4961,-2.4982,-2.4999,-2.5011,-2.503,-2.5049,-2.5073,-2.509,-2.511,-2.5137,-2.5162,-2.5182,-2.519,-2.5197,-2.5188,-2.52,-2.5223,-2.5227,-2.5232,-2.523,-2.519,-2.519,-2.5172,-2.5172,-2.5172]},{"header":{"parameterUnit":"m.s-1","parameterCategory":1,"la1":30.2991,"la2":30.254,"lo1":-89.0895,"lo2":-89.0444,"dy":0.0017,"dx":0.0017,"nx":28,"ny":28,"refTime":"2024-07-03T03:00:00:Z","depth":0,"parameterNumber":3,"parameterNumberName":"V-component_of_WINDS"},"data":[0,0,0,0,0,0,0,0,0,0,0,0,0,0,0,0,0,0,0,0,0,0,0,0,0,0,0,0,0,0,0,0,0,0,0,0,0,0,0,0,0,0,0,0,0,0,0,0,0,0,0,0,0,0,0,0,0,0,3.8993,3.8993,0,3.9038,3.9039,3.9039,3.9101,3.9102,3.9103,3.9104,3.9144,3.9144,3.9144,0,0,0,0,0,0,0,0,0,0,0,0,0,3.8955,3.8955,3.8993,3.8993,3.8994,3.9038,3.9039,3.904,3.9101,3.9102,3.9103,3.9104,3.9144,3.9144,3.9144,0,0,0,0,0,0,0,0,0,0,0,0,0,3.8983,3.8955,3.8993,3.903,3.9034,3.9038,3.9039,3.904,3.91,3.9102,3.9103,3.9105,3.9144,3.9144,3.9144,3.9114,0,0,3.9145,3.9145,0,0,0,0,0,0,0,0,3.8981,3.8984,3.9024,3.9027,3.9032,3.9066,3.904,3.9064,3.91,3.9075,3.9104,3.9106,3.9116,3.9119,3.9124,3.9116,3.9117,3.9145,3.9145,3.9145,3.9145,0,0,0,0,0,0,0,3.8979,3.8982,3.9011,3.9024,3.9029,3.9043,3.9049,3.9045,3.9086,3.9077,3.9082,3.9087,3.9119,3.9123,3.9125,3.9118,3.9145,3.9145,3.9145,3.9145,3.909,3.9089,0,0,0,0,0,0,3.8972,3.898,3.9009,3.9012,3.901,3.9042,3.9049,3.9053,3.9086,3.9093,3.9085,3.9089,3.9122,3.9125,3.9127,3.9095,3.9145,3.9145,3.9145,3.9092,3.909,3.9088,0,0,0,0,0,0,3.8971,3.8974,3.9007,3.8998,3.9003,3.9042,3.9046,3.9053,3.9058,3.9093,3.91,3.9083,3.9124,3.9126,3.9118,3.9097,3.9145,3.9145,3.9094,3.9091,3.9089,3.903,0,0,0,0,0,0,3.897,3.8973,3.8963,3.8997,3.9003,3.8999,3.9044,3.9053,3.9059,3.9065,3.9092,3.9098,3.9125,3.9117,3.9118,3.9098,3.9145,3.9095,3.9092,3.909,3.9034,3.9026,3.902,0,0,0,0,0,3.8968,3.8943,3.8962,3.8965,3.8991,3.8997,3.9001,3.9034,3.9057,3.9047,3.9069,3.9097,3.91,3.9116,3.9117,3.9097,3.9097,3.9093,3.909,3.9038,3.9028,3.902,0,0,0,0,0,0,3.8902,3.8948,3.897,3.8955,3.8972,3.9008,3.8995,3.9022,3.9032,3.9036,3.9076,3.9081,3.9068,3.9082,3.9099,3.9071,3.9103,3.9099,3.9062,3.9053,3.9046,3.9043,3.9145,0,0,0,0,0,3.8886,3.8889,3.8928,3.8911,3.8919,3.8956,3.8959,3.8984,3.9003,3.901,3.9031,3.9047,3.9052,3.9053,3.9059,3.9037,3.9044,3.9024,3.9017,3.9011,3.9007,3.8998,3.899,3.9077,3.9077,3.9077,0,0,3.8853,3.8878,3.8877,3.8899,3.8915,3.8916,3.8961,3.8959,3.8961,3.9009,3.9003,3.9019,3.9039,3.9024,3.9019,3.9035,3.8985,3.9006,3.9001,3.9001,3.8994,3.8985,3.8978,3.9074,3.9075,3.9075,0,0,3.8792,3.8811,3.8801,3.8817,3.8843,3.8868,3.8865,3.8897,3.8911,3.8907,3.8944,3.8945,3.8951,3.8965,3.8972,3.892,3.8947,3.8921,3.8882,3.8873,3.8866,3.886,3.8843,3.8836,3.8917,3.8917,3.8917,0,3.8747,3.8751,3.8791,3.8789,3.8797,3.8844,3.8833,3.8847,3.8871,3.8876,3.8895,3.8907,3.8923,3.8913,3.8901,3.8905,3.8903,3.8917,3.8864,3.8859,3.8854,3.8837,3.8831,3.8914,3.8914,3.8915,3.8915,0,3.8695,3.8698,3.8685,3.8712,3.8719,3.8712,3.875,3.8753,3.8778,3.88,3.8796,3.8818,3.883,3.883,3.8852,3.8823,3.8833,3.8857,3.889,3.8842,3.8827,3.8821,3.8909,3.891,3.8911,3.8912,0,0,3.8592,3.8643,3.8638,3.8651,3.8684,3.8687,3.8682,3.8697,3.8699,3.8715,3.8712,3.8718,3.8743,3.8751,3.8776,3.8768,3.8727,3.8794,3.8795,3.8781,3.8698,3.8679,3.8671,3.8746,3.8745,3.8744,3.8697,0,3.8538,3.8535,3.8572,3.8559,3.8562,3.8608,3.8605,3.8624,3.8646,3.8651,3.8674,3.8679,3.871,3.8716,3.871,3.8734,3.8711,3.8737,3.8743,3.8742,3.8736,3.8664,3.8643,3.8598,3.8691,3.869,3.8689,0,3.8474,3.849,3.8478,3.8514,3.8517,3.8513,3.8531,3.8536,3.8559,3.8576,3.8587,3.8617,3.8615,3.8647,3.8644,3.8661,3.8666,3.8678,3.8677,3.8678,3.8713,3.8663,3.8584,3.8577,3.868,3.8681,3.8682,0,3.8401,3.842,3.8416,3.8426,3.8467,3.8464,3.8481,3.8506,3.8513,3.8528,3.8534,3.8547,3.8554,3.8564,3.8596,3.8616,3.859,3.8624,3.8603,3.8602,3.8595,3.8595,3.8515,3.8598,3.8598,3.8598,3.8598,0,3.8337,3.8328,3.8384,3.8381,3.8373,3.8415,3.8405,3.8426,3.8449,3.8451,3.849,3.8491,3.8534,3.8539,3.8564,3.8559,3.8562,3.8575,3.8581,3.8571,3.857,3.8574,3.8578,3.8596,3.8596,3.8597,3.8597,0,3.8254,3.8292,3.829,3.8331,3.8342,3.8333,3.8368,3.8367,3.8393,3.8394,3.8397,3.8436,3.8445,3.8479,3.8494,3.8512,3.8498,3.8511,3.8491,3.8495,3.8473,3.8475,3.8393,3.8385,3.8472,3.8471,3.847,0,3.8211,3.8206,3.8247,3.8253,3.8269,3.8276,3.8285,3.8327,3.8334,3.8362,3.8358,3.837,3.8382,3.8393,3.8422,3.8435,3.8449,3.842,3.8451,3.8441,3.8449,3.8449,3.8449,3.8412,3.8411,3.841,3.8409,0,3.8131,3.815,3.8163,3.8182,3.8192,3.8209,3.8227,3.8229,3.8275,3.8281,3.8292,3.8302,3.832,3.8332,3.835,3.8366,3.8395,3.84,3.8396,3.8385,3.8374,3.8381,3.8473,3.8401,3.8402,3.8403,3.8403,3.8403,3.8067,3.8065,3.8095,3.8108,3.8127,3.8145,3.8147,3.8174,3.8184,3.8204,3.8228,3.8236,3.8261,3.8289,3.8303,3.8309,3.8325,3.8319,3.8317,3.8315,3.8311,3.8373,3.8312,3.8312,3.8313,3.8313,3.8313,0,3.7989,3.8012,3.8023,3.805,3.806,3.809,3.8113,3.8119,3.8127,3.8149,3.8161,3.8174,3.8186,3.8218,3.8233,3.8232,3.8246,3.8234,3.8235,3.8238,3.8295,3.8297,3.8223,3.8223,3.8223,3.8223,3.8223,3.8223,3.795,3.795,3.7973,3.7983,3.8005,3.8015,3.8026,3.8042,3.806,3.8074,3.8086,3.8107,3.8133,3.8151,3.8163,3.8172,3.8176,3.816,3.8173,3.8225,3.8234,3.8242,3.8245,3.8161,3.816,3.8116,3.8116,3.8116]}]]